Date,Time,Wetness (Wet Dry or Ice),Wind Speed (m/s),Temperature (C),Humidity (%),Pressure (mb),Radiation (W/m^2)
2019-01-05,23:50:00,DRY,3.37,4.63,9.0,778.00,0.6
2019-01-05,23:55:00,DRY,3.00,4.55,9.0,778.00,1.1
2019-01-06,00:00:00,DRY,2.73,4.53,9.0,778.00,1.1
2019-01-06,00:05:00,DRY,2.65,4.60,9.0,777.50,0.4
2019-01-06,00:10:00,DRY,2.67,4.83,8.0,777.67,2.2
2019-01-06,00:15:00,DRY,2.95,4.95,8.0,777.50,0.8
2019-01-06,00:20:00,DRY,3.00,5.13,7.7,777.33,1.7
2019-01-06,00:25:00,DRY,2.60,5.95,6.5,777.00,1.0
2019-01-06,00:30:00,DRY,2.37,6.00,6.0,777.00,1.2
2019-01-06,00:35:00,DRY,2.35,6.05,6.0,777.00,0.3
2019-01-06,00:40:00,DRY,2.43,5.83,6.0,777.00,1.7
2019-01-06,00:45:00,DRY,2.75,5.65,6.0,777.00,1.5
2019-01-06,00:50:00,DRY,2.90,5.60,6.0,777.00,1.3
2019-01-06,00:55:00,DRY,2.75,5.65,6.0,777.00,0.8
2019-01-06,01:00:00,DRY,2.83,5.47,6.7,777.00,0.9
2019-01-06,01:05:00,DRY,2.85,5.55,6.5,777.00,0.8
2019-01-06,01:10:00,DRY,2.87,5.23,7.0,777.00,1.6
2019-01-06,01:15:00,DRY,2.40,4.90,8.0,777.00,0.6
2019-01-06,01:20:00,DRY,2.53,5.17,7.0,777.00,1.6
2019-01-06,01:25:00,DRY,2.00,6.00,6.0,777.00,0.9
2019-01-06,01:30:00,DRY,2.40,6.10,6.0,777.00,1.3
2019-01-06,01:35:00,DRY,2.50,6.25,6.0,777.00,0.6
2019-01-06,01:40:00,DRY,2.03,6.17,6.0,777.00,1.2
2019-01-06,01:45:00,DRY,2.10,6.15,6.0,777.00,0.5
2019-01-06,01:50:00,DRY,2.17,6.07,6.0,777.00,0.9
2019-01-06,01:55:00,DRY,1.50,6.35,6.0,777.00,1.1
2019-01-06,02:00:00,DRY,1.43,6.30,6.0,777.00,1.6
2019-01-06,02:05:00,DRY,0.85,6.30,6.0,777.00,1.2
2019-01-06,02:10:00,DRY,1.70,6.07,6.0,777.00,0.9
2019-01-06,02:15:00,DRY,1.10,5.95,6.5,777.00,1.1
2019-01-06,02:20:00,DRY,2.03,6.00,6.7,777.00,0.6
2019-01-06,02:25:00,DRY,1.90,5.95,6.5,777.00,1.2
2019-01-06,02:30:00,DRY,1.47,6.13,7.0,777.00,0.9
2019-01-06,02:35:00,DRY,2.35,5.85,7.0,777.00,1.2
2019-01-06,02:40:00,DRY,1.87,5.83,7.0,777.00,1.1
2019-01-06,02:45:00,DRY,1.95,5.60,7.0,777.00,0.7
2019-01-06,02:50:00,DRY,2.53,5.73,7.0,777.00,0.7
2019-01-06,02:55:00,DRY,3.90,5.85,7.0,777.00,1.2
2019-01-06,03:00:00,DRY,2.77,5.70,7.0,777.00,1.1
2019-01-06,03:05:00,DRY,3.40,5.10,7.0,777.00,1.4
2019-01-06,03:10:00,DRY,2.57,4.87,7.0,777.00,1.6
2019-01-06,03:15:00,DRY,3.80,4.75,7.0,777.00,1.5
2019-01-06,03:20:00,DRY,3.37,4.77,7.3,777.00,1.1
2019-01-06,03:25:00,DRY,3.50,4.75,8.0,777.00,1.2
2019-01-06,03:30:00,DRY,2.97,4.73,7.0,777.00,0.9
2019-01-06,03:35:00,DRY,1.90,4.70,7.0,777.00,1.2
2019-01-06,03:40:00,DRY,3.07,4.70,7.0,777.00,1.4
2019-01-06,03:45:00,DRY,2.25,4.65,7.0,777.00,1.5
2019-01-06,03:50:00,DRY,2.47,4.70,7.0,777.00,1.5
2019-01-06,03:55:00,DRY,3.65,5.15,7.0,777.00,1.4
2019-01-06,04:00:00,DRY,1.53,5.43,7.0,777.00,1.5
2019-01-06,04:05:00,DRY,1.50,5.30,7.0,777.00,1.0
2019-01-06,04:10:00,DRY,2.17,5.13,7.0,777.00,1.6
2019-01-06,04:15:00,DRY,1.55,5.15,7.0,777.00,0.5
2019-01-06,04:20:00,DRY,2.60,5.07,7.0,777.00,0.9
2019-01-06,04:25:00,DRY,3.20,5.00,7.0,777.00,0.8
2019-01-06,04:30:00,DRY,3.40,4.97,7.0,777.00,1.2
2019-01-06,04:35:00,DRY,2.05,4.85,7.0,777.00,1.2
2019-01-06,04:40:00,DRY,2.50,5.07,7.0,777.00,1.1
2019-01-06,04:45:00,DRY,3.00,5.35,7.0,777.00,1.4
2019-01-06,04:50:00,DRY,1.93,5.53,7.0,776.33,1.0
2019-01-06,04:55:00,DRY,1.75,5.65,7.0,776.00,1.8
2019-01-06,05:00:00,DRY,2.17,5.60,7.0,776.00,1.2
2019-01-06,05:05:00,DRY,2.00,5.55,7.0,776.00,1.4
2019-01-06,05:10:00,DRY,2.77,5.53,8.0,776.00,1.4
2019-01-06,05:15:00,DRY,3.95,5.40,7.0,776.00,0.8
2019-01-06,05:20:00,DRY,5.60,5.20,7.0,776.00,1.4
2019-01-06,05:25:00,DRY,6.10,4.85,7.5,776.00,1.2
2019-01-06,05:30:00,DRY,5.10,4.80,8.7,776.00,1.4
2019-01-06,05:35:00,DRY,6.60,4.80,9.0,776.00,1.0
2019-01-06,05:40:00,DRY,5.67,4.63,9.0,776.00,1.1
2019-01-06,05:45:00,DRY,4.50,4.55,10.0,776.00,1.0
2019-01-06,05:50:00,DRY,2.83,4.60,10.0,776.00,1.2
2019-01-06,05:55:00,DRY,5.25,4.50,10.0,776.00,1.2
2019-01-06,06:00:00,DRY,4.47,4.47,10.0,776.00,1.2
2019-01-06,06:05:00,DRY,4.45,4.45,10.0,776.00,1.4
2019-01-06,06:10:00,DRY,2.63,4.67,10.0,776.00,1.6
2019-01-06,06:15:00,DRY,3.75,4.65,10.0,776.00,1.8
2019-01-06,06:20:00,DRY,2.90,4.63,10.0,776.00,1.9
2019-01-06,06:25:00,DRY,4.05,4.60,10.0,776.00,1.4
2019-01-06,06:30:00,DRY,4.33,4.53,10.0,776.00,1.3
2019-01-06,06:35:00,DRY,6.00,4.50,10.0,776.00,1.2
2019-01-06,06:40:00,DRY,4.00,4.47,10.0,776.00,1.3
2019-01-06,06:45:00,DRY,5.75,4.35,10.0,776.00,1.2
2019-01-06,06:50:00,DRY,5.93,4.33,10.0,776.00,1.4
2019-01-06,06:55:00,DRY,5.15,4.40,10.0,776.00,1.4
2019-01-06,07:00:00,DRY,4.70,4.20,11.0,776.00,1.4
2019-01-06,07:05:00,DRY,4.90,4.30,10.0,776.00,1.2
2019-01-06,07:10:00,DRY,4.43,4.33,10.3,776.00,1.2
2019-01-06,07:15:00,DRY,4.30,4.40,11.0,776.00,1.3
2019-01-06,07:20:00,DRY,3.73,4.40,11.0,776.00,1.0
2019-01-06,07:25:00,DRY,4.30,4.40,11.0,776.00,1.4
2019-01-06,07:30:00,DRY,4.70,4.17,11.0,776.00,1.4
2019-01-06,07:35:00,DRY,4.75,4.05,11.0,776.00,1.2
2019-01-06,07:40:00,DRY,4.60,4.37,11.0,776.00,1.3
2019-01-06,07:45:00,DRY,3.60,4.35,11.0,776.00,1.6
2019-01-06,07:50:00,DRY,3.93,4.40,11.0,776.00,2.3
2019-01-06,07:55:00,DRY,2.05,4.40,11.0,776.00,3.0
2019-01-06,08:00:00,DRY,4.33,4.67,10.3,776.00,4.6
2019-01-06,08:05:00,DRY,1.50,4.70,10.0,776.00,7.8
2019-01-06,08:10:00,DRY,3.23,5.03,10.0,776.67,8.9
2019-01-06,08:15:00,DRY,3.80,5.25,10.0,776.00,11.8
2019-01-06,08:20:00,DRY,3.63,5.23,9.3,776.67,13.3
2019-01-06,08:25:00,DRY,4.25,5.20,9.5,777.00,15.3
2019-01-06,08:30:00,DRY,5.13,5.27,9.3,776.67,17.4
2019-01-06,08:35:00,DRY,4.05,5.45,9.0,777.00,18.8
2019-01-06,08:40:00,DRY,3.57,5.27,9.3,777.00,21.1
2019-01-06,08:45:00,DRY,3.80,5.40,9.0,777.00,36.9
2019-01-06,08:50:00,DRY,3.77,5.43,9.0,777.00,156.7
2019-01-06,08:55:00,DRY,3.05,5.75,8.5,777.00,175.8
2019-01-06,09:00:00,DRY,3.20,5.87,8.7,777.00,193.7
2019-01-06,09:05:00,DRY,3.50,5.75,9.0,777.00,211.1
2019-01-06,09:10:00,DRY,4.13,5.50,10.0,777.00,229.4
2019-01-06,09:15:00,DRY,3.20,5.60,10.5,777.00,247.1
2019-01-06,09:20:00,DRY,2.97,5.50,11.0,777.00,265.3
2019-01-06,09:25:00,DRY,2.00,5.55,10.5,777.00,284.3
2019-01-06,09:30:00,DRY,3.53,5.73,10.3,777.00,300.9
2019-01-06,09:35:00,DRY,2.75,5.65,11.0,777.00,318.1
2019-01-06,09:40:00,DRY,4.10,5.57,10.3,777.00,335.8
2019-01-06,09:45:00,DRY,4.95,5.60,10.5,777.00,352.2
2019-01-06,09:50:00,DRY,4.00,5.67,10.7,777.00,370.4
2019-01-06,09:55:00,DRY,2.60,5.95,10.5,777.00,387.6
2019-01-06,10:00:00,DRY,2.03,5.97,10.7,777.00,403.6
2019-01-06,10:05:00,DRY,2.30,6.00,10.0,777.00,420.8
2019-01-06,10:10:00,DRY,2.00,6.23,10.3,777.00,436.0
2019-01-06,10:15:00,DRY,1.90,6.20,10.5,777.00,451.8
2019-01-06,10:20:00,DRY,2.13,6.07,10.0,777.00,466.7
2019-01-06,10:25:00,DRY,2.00,6.25,10.0,777.00,481.8
2019-01-06,10:30:00,DRY,1.53,6.73,10.3,777.33,497.2
2019-01-06,10:35:00,DRY,1.25,6.55,11.0,777.50,511.7
2019-01-06,10:40:00,DRY,2.17,6.40,12.0,777.00,525.3
2019-01-06,10:45:00,DRY,2.40,6.25,11.0,777.50,538.1
2019-01-06,10:50:00,DRY,2.37,6.37,12.0,777.00,551.8
2019-01-06,10:55:00,DRY,2.10,6.35,11.5,778.00,564.5
2019-01-06,11:00:00,DRY,1.43,6.70,12.0,777.67,577.2
2019-01-06,11:05:00,DRY,1.25,6.85,12.0,778.00,589.5
2019-01-06,11:10:00,DRY,2.03,6.80,12.7,777.67,602.8
2019-01-06,11:15:00,DRY,2.20,6.70,13.0,777.50,612.5
2019-01-06,11:20:00,DRY,1.40,6.63,12.7,777.00,625.3
2019-01-06,11:25:00,DRY,1.75,6.55,13.5,777.00,623.6
2019-01-06,11:30:00,DRY,3.50,6.17,14.0,777.00,625.6
2019-01-06,11:35:00,DRY,3.10,5.90,14.0,777.00,638.8
2019-01-06,11:40:00,DRY,4.17,5.77,13.0,777.00,637.7
2019-01-06,11:45:00,DRY,3.75,6.35,13.0,777.00,659.4
2019-01-06,11:50:00,DRY,1.90,6.70,12.7,777.00,649.7
2019-01-06,11:55:00,DRY,3.40,6.85,13.5,777.00,685.7
2019-01-06,12:00:00,DRY,3.00,6.77,13.7,777.00,688.8
2019-01-06,12:05:00,DRY,3.15,6.80,13.0,777.00,703.4
2019-01-06,12:10:00,DRY,3.73,6.63,13.3,777.00,707.0
2019-01-06,12:15:00,DRY,2.75,6.75,12.5,777.00,716.2
2019-01-06,12:20:00,DRY,3.33,7.23,12.0,777.00,724.6
2019-01-06,12:25:00,DRY,3.60,7.60,12.0,777.00,719.0
2019-01-06,12:30:00,DRY,3.37,7.37,11.3,777.00,730.5
2019-01-06,12:35:00,DRY,3.05,7.90,13.0,777.00,742.2
2019-01-06,12:40:00,DRY,2.33,7.97,12.3,777.00,733.7
2019-01-06,12:45:00,DRY,2.15,7.75,13.0,777.00,725.3
2019-01-06,12:50:00,DRY,3.50,7.33,13.3,776.67,703.3
2019-01-06,12:55:00,DRY,2.05,7.00,14.0,777.00,734.1
2019-01-06,13:00:00,DRY,3.20,7.37,14.7,777.00,746.9
2019-01-06,13:05:00,DRY,3.05,7.15,15.5,776.00,750.6
2019-01-06,13:10:00,DRY,2.45,7.25,13.5,776.00,719.8
2019-01-06,13:15:00,DRY,1.55,7.35,14.5,776.00,760.9
2019-01-06,13:20:00,DRY,1.47,7.27,18.3,776.33,679.8
2019-01-06,13:25:00,DRY,0.80,7.50,23.0,776.00,660.3
2019-01-06,13:30:00,DRY,3.10,7.90,22.0,776.00,710.4
2019-01-06,13:35:00,DRY,2.40,7.70,18.0,776.00,687.2
2019-01-06,13:40:00,DRY,1.20,8.00,19.7,776.00,682.1
2019-01-06,13:45:00,DRY,1.70,8.35,24.5,776.00,607.7
2019-01-06,13:50:00,DRY,1.30,8.23,23.7,776.00,696.8
2019-01-06,13:55:00,DRY,0.95,8.25,25.0,776.00,670.8
2019-01-06,14:00:00,DRY,1.60,8.50,26.3,776.00,671.3
2019-01-06,14:05:00,DRY,1.40,8.00,27.0,776.00,633.3
2019-01-06,14:10:00,DRY,2.33,8.20,25.7,776.00,566.9
2019-01-06,14:15:00,DRY,1.85,8.00,27.0,776.00,693.1
2019-01-06,14:20:00,DRY,1.77,8.13,31.0,776.00,710.7
2019-01-06,14:25:00,DRY,1.45,8.20,27.5,776.00,669.2
2019-01-06,14:30:00,DRY,1.33,7.87,20.7,776.00,626.3
2019-01-06,14:35:00,DRY,1.85,8.05,18.5,776.00,613.2
2019-01-06,14:40:00,DRY,3.10,7.80,24.3,776.00,636.4
2019-01-06,14:45:00,DRY,1.70,7.70,26.0,776.00,638.3
2019-01-06,14:50:00,DRY,2.60,7.83,21.0,776.00,577.7
2019-01-06,14:55:00,DRY,2.10,7.70,19.5,776.00,555.0
2019-01-06,15:00:00,DRY,1.77,7.63,20.3,776.00,623.7
2019-01-06,15:05:00,DRY,1.00,7.95,17.0,776.00,645.7
2019-01-06,15:10:00,DRY,1.67,8.03,15.0,776.00,629.8
2019-01-06,15:15:00,DRY,1.20,8.05,18.5,776.00,627.4
2019-01-06,15:20:00,DRY,1.63,7.73,17.3,776.00,603.2
2019-01-06,15:25:00,DRY,2.45,7.30,18.0,776.00,586.7
2019-01-06,15:30:00,DRY,1.53,7.57,16.7,776.00,571.0
2019-01-06,15:35:00,DRY,2.95,7.55,14.0,776.00,556.0
2019-01-06,15:40:00,DRY,1.70,7.57,20.0,776.00,543.7
2019-01-06,15:45:00,DRY,2.25,7.40,23.0,776.00,522.5
2019-01-06,15:50:00,DRY,1.73,7.27,24.7,776.00,506.1
2019-01-06,15:55:00,DRY,1.60,6.85,35.0,776.00,476.1
2019-01-06,16:00:00,DRY,2.33,6.97,36.7,776.00,425.4
2019-01-06,16:05:00,DRY,1.65,6.80,43.0,776.00,398.1
2019-01-06,16:10:00,DRY,1.70,6.73,39.7,776.00,374.1
2019-01-06,16:15:00,DRY,2.15,6.70,42.0,776.00,349.1
2019-01-06,16:20:00,DRY,1.37,6.57,44.7,776.00,346.6
2019-01-06,16:25:00,DRY,1.80,6.60,42.5,776.00,362.1
2019-01-06,16:30:00,DRY,1.53,6.53,38.0,776.00,343.0
2019-01-06,16:35:00,DRY,2.20,6.25,43.5,776.00,319.1
2019-01-06,16:40:00,DRY,1.83,6.03,52.0,776.00,286.5
2019-01-06,16:45:00,DRY,1.90,5.80,56.5,776.00,238.3
2019-01-06,16:50:00,DRY,2.13,5.90,48.7,776.00,220.6
2019-01-06,16:55:00,DRY,2.55,5.85,52.5,776.00,227.9
2019-01-06,17:00:00,DRY,2.03,5.57,48.3,776.00,230.0
2019-01-06,17:05:00,DRY,1.45,5.35,46.5,776.00,235.1
2019-01-06,17:10:00,DRY,1.90,5.67,41.0,776.00,228.8
2019-01-06,17:15:00,DRY,2.60,5.80,39.5,776.00,210.1
2019-01-06,17:20:00,DRY,2.17,5.37,41.3,776.00,181.1
2019-01-06,17:25:00,DRY,1.80,5.20,43.5,776.00,153.6
2019-01-06,17:30:00,DRY,2.33,5.13,41.3,776.00,126.3
2019-01-06,17:35:00,DRY,3.10,5.10,38.5,776.00,108.2
2019-01-06,17:40:00,DRY,3.90,4.83,42.7,776.00,88.0
2019-01-06,17:45:00,DRY,3.05,4.55,43.5,776.00,73.2
2019-01-06,17:50:00,DRY,3.43,4.47,41.0,776.00,59.3
2019-01-06,17:55:00,DRY,3.70,4.40,36.5,776.00,51.9
2019-01-06,18:00:00,DRY,2.90,4.60,32.3,776.00,46.2
2019-01-06,18:05:00,DRY,3.20,4.75,31.0,776.00,36.9
2019-01-06,18:10:00,DRY,2.30,4.67,28.7,776.00,26.7
2019-01-06,18:15:00,DRY,2.40,4.60,26.5,776.00,19.9
2019-01-06,18:20:00,DRY,3.37,4.70,26.0,776.00,12.3
2019-01-06,18:25:00,DRY,3.50,4.70,25.5,776.00,6.5
2019-01-06,18:30:00,DRY,3.77,4.67,25.3,776.00,3.7
2019-01-06,18:35:00,DRY,3.05,4.55,26.0,776.00,3.2
2019-01-06,18:40:00,DRY,3.23,4.40,23.7,776.00,1.8
2019-01-06,18:45:00,DRY,3.55,4.55,20.5,776.00,0.6
2019-01-06,18:50:00,DRY,3.30,4.70,18.3,776.00,1.0
2019-01-06,18:55:00,DRY,4.05,4.70,18.5,776.00,2.3
2019-01-06,19:00:00,DRY,4.00,4.63,19.0,776.00,1.2
2019-01-06,19:05:00,DRY,2.60,4.70,17.0,776.00,1.8
2019-01-06,19:10:00,DRY,3.43,4.80,16.0,776.00,1.5
2019-01-06,19:15:00,DRY,4.35,4.70,15.5,776.50,1.1
2019-01-06,19:20:00,DRY,4.40,4.77,15.0,776.33,1.1
2019-01-06,19:25:00,DRY,3.10,4.65,16.5,776.50,1.5
2019-01-06,19:30:00,DRY,3.07,4.77,14.0,776.67,1.3
2019-01-06,19:35:00,DRY,3.05,4.70,14.0,776.00,1.1
2019-01-06,19:40:00,DRY,1.27,4.73,13.0,777.00,1.5
2019-01-06,19:45:00,DRY,0.85,4.70,13.5,777.00,1.7
2019-01-06,19:50:00,DRY,1.30,4.57,13.0,777.00,0.7
2019-01-06,19:55:00,DRY,1.00,4.55,12.0,777.00,0.8
2019-01-06,20:00:00,DRY,0.97,4.60,12.0,777.00,1.4
2019-01-06,20:05:00,DRY,2.40,4.60,12.5,777.00,1.2
2019-01-06,20:10:00,DRY,2.77,4.73,12.0,777.00,1.1
2019-01-06,20:15:00,DRY,2.35,4.60,12.0,777.00,1.4
2019-01-06,20:20:00,DRY,2.00,4.57,12.7,777.00,0.7
2019-01-06,20:25:00,DRY,3.50,4.60,12.0,777.00,1.5
2019-01-06,20:30:00,DRY,3.03,4.37,12.7,777.00,1.3
2019-01-06,20:35:00,DRY,2.70,4.30,12.5,777.00,1.1
2019-01-06,20:40:00,DRY,2.60,4.27,12.7,777.00,1.2
2019-01-06,20:45:00,DRY,2.50,4.20,13.0,777.00,0.3
2019-01-06,20:50:00,DRY,3.90,4.20,13.0,777.00,1.0
2019-01-06,20:55:00,DRY,4.40,4.25,13.5,777.00,1.0
2019-01-06,21:00:00,DRY,1.83,4.13,13.3,777.00,1.5
2019-01-06,21:05:00,DRY,2.55,4.20,13.0,777.00,1.9
2019-01-06,21:10:00,DRY,1.77,4.30,13.0,777.00,0.9
2019-01-06,21:15:00,DRY,1.60,5.05,11.0,777.00,1.3
2019-01-06,21:20:00,DRY,2.27,5.20,11.3,777.00,0.8
2019-01-06,21:25:00,DRY,2.10,5.15,11.0,777.00,1.4
2019-01-06,21:30:00,DRY,1.97,5.30,11.3,777.00,1.6
2019-01-06,21:35:00,DRY,1.80,5.10,11.5,777.00,1.4
2019-01-06,21:40:00,DRY,2.33,5.33,10.3,777.00,0.7
2019-01-06,21:45:00,DRY,2.00,5.35,10.5,777.00,1.4
2019-01-06,21:50:00,DRY,2.80,5.40,11.0,777.00,1.4
2019-01-06,21:55:00,DRY,2.85,5.65,10.5,777.00,1.0
2019-01-06,22:00:00,DRY,1.63,5.60,11.0,777.00,1.1
2019-01-06,22:05:00,DRY,3.30,5.55,11.0,777.00,0.9
2019-01-06,22:10:00,DRY,3.60,5.63,10.7,777.00,1.1
2019-01-06,22:15:00,DRY,3.70,5.40,11.0,777.00,1.1
2019-01-06,22:20:00,DRY,3.20,5.37,11.0,777.00,1.3
2019-01-06,22:25:00,DRY,2.20,5.55,11.5,777.00,1.1
2019-01-06,22:30:00,DRY,2.43,5.27,11.3,777.00,1.2
2019-01-06,22:35:00,DRY,2.45,5.25,11.0,777.00,0.9
2019-01-06,22:40:00,DRY,2.87,5.57,11.0,777.00,1.1
2019-01-06,22:45:00,DRY,2.90,5.45,11.0,777.00,1.9
2019-01-06,22:50:00,DRY,3.10,5.63,10.7,777.00,1.0
2019-01-06,22:55:00,DRY,1.25,5.70,11.0,777.00,1.6
2019-01-06,23:00:00,DRY,1.77,5.57,11.0,777.00,0.9
2019-01-06,23:05:00,DRY,2.65,5.70,10.5,777.00,1.3
2019-01-06,23:10:00,DRY,4.50,6.17,10.0,777.00,1.0
2019-01-06,23:15:00,DRY,3.35,6.20,10.0,777.00,1.1
2019-01-06,23:20:00,DRY,1.77,5.80,10.3,777.00,1.6
2019-01-06,23:25:00,DRY,2.95,5.50,11.0,777.00,0.8
2019-01-06,23:30:00,DRY,3.00,5.40,11.0,777.00,0.5
2019-01-06,23:35:00,DRY,2.80,5.65,10.5,777.00,0.8
2019-01-06,23:40:00,DRY,2.10,5.80,10.3,777.00,1.3
2019-01-06,23:45:00,DRY,2.20,5.55,11.0,777.00,0.4
2019-01-06,23:50:00,DRY,2.13,5.70,11.0,777.00,1.8
2019-01-06,23:55:00,DRY,1.60,5.70,11.0,777.00,1.1
2019-01-07,00:00:00,DRY,3.10,5.60,10.3,777.00,1.0
2019-01-07,00:05:00,DRY,2.80,5.50,11.0,777.00,1.6
2019-01-07,00:10:00,DRY,3.03,5.43,11.0,777.00,1.5
2019-01-07,00:15:00,DRY,2.90,5.45,11.0,777.00,0.9
2019-01-07,00:20:00,DRY,4.00,5.40,10.7,777.00,1.3
2019-01-07,00:25:00,DRY,3.15,5.75,10.0,777.00,1.3
2019-01-07,00:30:00,DRY,2.87,5.70,10.0,777.00,0.9
2019-01-07,00:35:00,DRY,1.85,5.60,10.0,777.00,1.9
2019-01-07,00:40:00,DRY,2.57,5.40,10.0,776.33,1.0
2019-01-07,00:45:00,DRY,1.05,5.50,10.0,776.50,1.6
2019-01-07,00:50:00,DRY,1.57,5.50,10.0,777.00,0.9
2019-01-07,00:55:00,DRY,3.50,5.35,10.0,776.50,1.2
2019-01-07,01:00:00,DRY,3.17,5.40,10.0,776.67,0.9
2019-01-07,01:05:00,DRY,4.20,5.20,10.0,776.00,1.1
2019-01-07,01:10:00,DRY,3.40,4.97,9.7,776.33,0.8
2019-01-07,01:15:00,DRY,2.95,4.75,10.0,776.00,1.1
2019-01-07,01:20:00,DRY,3.47,4.47,9.7,776.00,1.5
2019-01-07,01:25:00,DRY,4.40,4.10,11.5,776.00,1.0
2019-01-07,01:30:00,DRY,2.63,4.10,11.0,776.00,0.9
2019-01-07,01:35:00,DRY,2.95,4.20,10.0,776.00,1.4
2019-01-07,01:40:00,DRY,3.73,4.13,10.0,776.00,1.0
2019-01-07,01:45:00,DRY,1.65,4.00,10.0,776.00,0.3
2019-01-07,01:50:00,DRY,2.33,3.80,11.3,776.00,1.0
2019-01-07,01:55:00,DRY,2.55,3.60,12.5,776.00,1.6
2019-01-07,02:00:00,DRY,2.20,3.67,11.0,776.00,1.1
2019-01-07,02:05:00,DRY,2.20,4.15,9.5,776.00,0.1
2019-01-07,02:10:00,DRY,3.33,3.97,10.0,776.00,0.7
2019-01-07,02:15:00,DRY,3.05,4.25,9.5,776.00,1.3
2019-01-07,02:20:00,DRY,3.07,4.60,9.0,776.00,1.5
2019-01-07,02:25:00,DRY,2.95,4.45,9.0,776.00,0.9
2019-01-07,02:30:00,DRY,3.43,4.50,10.0,776.00,1.2
2019-01-07,02:35:00,DRY,4.75,4.75,10.0,776.00,1.1
2019-01-07,02:40:00,DRY,2.93,4.97,10.0,776.00,1.4
2019-01-07,02:45:00,DRY,4.00,4.85,10.0,776.00,0.9
2019-01-07,02:50:00,DRY,4.27,4.70,10.0,776.00,1.4
2019-01-07,02:55:00,DRY,3.80,4.60,9.5,776.00,1.3
2019-01-07,03:00:00,DRY,3.37,4.57,10.7,776.00,1.2
2019-01-07,03:05:00,DRY,4.25,4.55,11.0,776.00,1.2
2019-01-07,03:10:00,DRY,2.27,4.60,11.0,776.00,0.4
2019-01-07,03:15:00,DRY,2.45,4.65,11.0,776.00,1.5
2019-01-07,03:20:00,DRY,3.10,4.50,10.7,776.00,0.9
2019-01-07,03:25:00,DRY,3.20,4.50,11.0,776.00,0.7
2019-01-07,03:30:00,DRY,4.03,4.53,11.0,776.00,1.0
2019-01-07,03:35:00,DRY,3.50,4.50,11.0,776.00,1.6
2019-01-07,03:40:00,DRY,3.37,4.47,11.0,776.00,1.4
2019-01-07,03:45:00,DRY,3.95,4.35,11.0,776.00,2.2
2019-01-07,03:50:00,DRY,4.57,4.23,11.0,776.00,1.1
2019-01-07,03:55:00,DRY,4.25,4.05,11.0,776.00,1.1
2019-01-07,04:00:00,DRY,3.03,4.07,11.0,776.00,1.4
2019-01-07,04:05:00,DRY,2.50,3.95,11.0,776.00,1.2
2019-01-07,04:10:00,DRY,3.37,3.70,11.0,776.00,1.0
2019-01-07,04:15:00,DRY,4.05,3.75,11.0,776.00,1.2
2019-01-07,04:20:00,DRY,3.30,3.87,10.3,776.00,2.4
2019-01-07,04:25:00,DRY,3.00,3.90,10.0,776.00,1.0
2019-01-07,04:30:00,DRY,2.63,3.70,11.0,776.00,1.1
2019-01-07,04:35:00,DRY,3.85,3.60,11.0,776.00,1.0
2019-01-07,04:40:00,DRY,3.43,3.63,11.0,776.00,1.0
2019-01-07,04:45:00,DRY,4.85,3.50,11.0,776.00,1.1
2019-01-07,04:50:00,DRY,2.60,3.50,11.0,776.00,1.3
2019-01-07,04:55:00,DRY,3.45,3.60,10.0,776.00,1.1
2019-01-07,05:00:00,DRY,4.50,3.60,10.0,776.00,1.1
2019-01-07,05:05:00,DRY,5.20,3.60,10.0,776.00,1.0
2019-01-07,05:10:00,DRY,3.60,3.73,10.0,776.00,1.5
2019-01-07,05:15:00,DRY,4.60,3.75,10.0,776.00,1.3
2019-01-07,05:20:00,DRY,3.07,3.67,10.0,776.00,0.9
2019-01-07,05:25:00,DRY,5.95,3.55,10.0,776.00,1.3
2019-01-07,05:30:00,DRY,5.57,3.43,10.0,775.33,1.3
2019-01-07,05:35:00,DRY,4.45,3.40,10.0,775.50,1.0
2019-01-07,05:40:00,DRY,5.03,3.30,10.0,775.67,1.0
2019-01-07,05:45:00,DRY,4.10,3.30,10.0,775.00,0.5
2019-01-07,05:50:00,DRY,4.00,3.23,10.0,776.00,1.1
2019-01-07,05:55:00,DRY,3.60,3.35,10.0,775.50,0.9
2019-01-07,06:00:00,DRY,6.30,3.23,10.0,775.33,1.3
2019-01-07,06:05:00,DRY,4.25,3.20,10.0,775.00,1.1
2019-01-07,06:10:00,DRY,5.87,3.47,10.0,776.00,1.2
2019-01-07,06:15:00,DRY,4.55,3.85,10.0,776.00,1.4
2019-01-07,06:20:00,DRY,5.17,3.63,10.0,776.00,0.7
2019-01-07,06:25:00,DRY,3.65,3.70,10.0,776.00,1.1
2019-01-07,06:30:00,DRY,3.87,3.77,10.0,776.00,0.8
2019-01-07,06:35:00,DRY,5.55,3.65,10.0,776.00,2.2
2019-01-07,06:40:00,DRY,4.73,3.73,10.0,776.00,1.1
2019-01-07,06:45:00,DRY,4.80,3.70,10.0,776.00,1.0
2019-01-07,06:50:00,DRY,4.20,3.87,10.0,776.00,0.9
2019-01-07,06:55:00,DRY,5.30,3.95,10.0,776.00,0.3
2019-01-07,07:00:00,DRY,4.47,3.90,10.0,776.00,1.0
2019-01-07,07:05:00,DRY,3.60,4.00,10.0,776.00,1.1
2019-01-07,07:10:00,DRY,4.40,3.90,10.0,776.00,1.3
2019-01-07,07:15:00,DRY,4.50,3.85,10.0,776.00,0.9
2019-01-07,07:20:00,DRY,4.07,3.87,10.0,776.00,1.7
2019-01-07,07:25:00,DRY,4.05,3.95,10.0,776.00,1.1
2019-01-07,07:30:00,DRY,5.07,3.90,10.0,776.00,1.0
2019-01-07,07:35:00,DRY,2.95,3.90,10.0,776.00,1.1
2019-01-07,07:40:00,DRY,3.57,3.83,10.0,776.00,1.3
2019-01-07,07:45:00,DRY,4.35,3.85,10.0,776.00,1.2
2019-01-07,07:50:00,DRY,5.23,3.67,10.0,776.00,1.5
2019-01-07,07:55:00,DRY,3.55,3.70,10.0,776.00,2.4
2019-01-07,08:00:00,DRY,3.60,3.87,9.3,776.00,2.6
2019-01-07,08:05:00,DRY,3.20,3.85,9.0,776.00,5.4
2019-01-07,08:10:00,DRY,3.50,3.93,9.0,776.00,11.1
2019-01-07,08:15:00,DRY,3.75,3.95,10.0,776.00,16.6
2019-01-07,08:20:00,DRY,4.47,3.93,9.7,776.00,22.6
2019-01-07,08:25:00,DRY,2.85,4.00,9.0,776.00,30.2
2019-01-07,08:30:00,DRY,3.17,3.97,9.0,776.00,38.8
2019-01-07,08:35:00,DRY,4.25,3.90,9.0,776.00,39.1
2019-01-07,08:40:00,DRY,4.37,3.97,9.0,776.00,38.7
2019-01-07,08:45:00,DRY,3.50,3.85,9.0,776.00,43.5
2019-01-07,08:50:00,DRY,5.57,3.97,8.7,776.00,51.3
2019-01-07,08:55:00,DRY,3.45,4.05,9.0,776.00,77.6
2019-01-07,09:00:00,DRY,3.80,4.17,9.0,776.00,71.5
2019-01-07,09:05:00,DRY,4.05,4.20,9.0,776.50,79.6
2019-01-07,09:10:00,DRY,3.20,4.27,8.7,777.00,95.0
2019-01-07,09:15:00,DRY,2.45,4.65,9.0,776.00,108.3
2019-01-07,09:20:00,DRY,3.00,4.53,9.0,777.00,114.4
2019-01-07,09:25:00,DRY,1.10,4.70,8.5,777.00,134.0
2019-01-07,09:30:00,DRY,2.13,4.67,9.0,777.00,114.9
2019-01-07,09:35:00,DRY,3.60,4.75,9.0,777.00,116.1
2019-01-07,09:40:00,DRY,2.93,4.43,9.0,777.00,120.7
2019-01-07,09:45:00,DRY,3.10,4.40,9.0,777.00,122.3
2019-01-07,09:50:00,DRY,4.17,4.53,9.0,777.00,128.8
2019-01-07,09:55:00,DRY,4.80,4.75,9.0,777.00,137.2
2019-01-07,10:00:00,DRY,4.33,4.80,9.0,777.00,157.7
2019-01-07,10:05:00,DRY,4.60,5.00,10.0,777.00,196.0
2019-01-07,10:10:00,DRY,2.93,5.17,9.0,777.00,276.9
2019-01-07,10:15:00,DRY,2.35,5.30,9.5,777.00,316.2
2019-01-07,10:20:00,DRY,3.73,5.23,9.3,777.00,291.9
2019-01-07,10:25:00,DRY,3.10,5.30,9.5,777.00,407.3
2019-01-07,10:30:00,DRY,4.70,5.40,9.3,777.00,341.4
2019-01-07,10:35:00,DRY,3.00,5.40,9.5,777.00,513.1
2019-01-07,10:40:00,DRY,2.33,5.73,9.0,777.00,532.4
2019-01-07,10:45:00,DRY,3.20,5.70,9.0,777.00,456.8
2019-01-07,10:50:00,DRY,2.63,5.73,9.0,777.00,551.6
2019-01-07,10:55:00,DRY,3.10,5.95,9.0,777.00,465.1
2019-01-07,11:00:00,DRY,2.47,5.90,9.0,777.00,403.6
2019-01-07,11:05:00,DRY,2.40,5.70,10.0,777.00,341.3
2019-01-07,11:10:00,DRY,3.07,5.60,9.0,777.00,457.0
2019-01-07,11:15:00,DRY,2.05,5.80,9.0,777.00,481.9
2019-01-07,11:20:00,DRY,2.20,5.77,9.0,777.00,520.2
2019-01-07,11:25:00,DRY,3.10,5.85,9.5,777.00,586.6
2019-01-07,11:30:00,DRY,1.70,6.10,10.3,777.00,627.7
2019-01-07,11:35:00,DRY,2.35,6.05,10.5,777.00,625.7
2019-01-07,11:40:00,DRY,2.20,6.47,11.0,777.00,677.8
2019-01-07,11:45:00,DRY,3.15,6.25,12.0,776.50,714.0
2019-01-07,11:50:00,DRY,2.30,6.33,11.3,777.00,704.3
2019-01-07,11:55:00,DRY,0.80,6.70,12.0,776.50,709.2
2019-01-07,12:00:00,DRY,0.67,6.60,11.7,776.00,716.0
2019-01-07,12:05:00,DRY,1.90,6.35,11.0,776.00,724.1
2019-01-07,12:10:00,DRY,1.50,6.60,12.0,776.00,721.0
2019-01-07,12:15:00,DRY,2.65,6.35,13.5,776.00,749.5
2019-01-07,12:20:00,DRY,1.37,6.47,14.0,776.00,563.1
2019-01-07,12:25:00,DRY,2.00,6.30,15.5,776.00,689.9
2019-01-07,12:30:00,DRY,1.53,6.23,17.3,776.00,745.6
2019-01-07,12:35:00,DRY,3.45,6.20,19.5,776.00,673.6
2019-01-07,12:40:00,DRY,2.50,6.10,19.3,776.00,786.6
2019-01-07,12:45:00,DRY,3.30,6.05,19.0,776.00,685.0
2019-01-07,12:50:00,DRY,1.33,6.43,18.7,776.00,712.1
2019-01-07,12:55:00,DRY,1.95,6.45,18.5,776.00,444.0
2019-01-07,13:00:00,DRY,1.77,6.00,20.0,776.00,506.7
2019-01-07,13:05:00,DRY,1.45,6.35,19.0,775.50,673.0
2019-01-07,13:10:00,DRY,2.57,6.57,19.7,775.00,699.6
2019-01-07,13:15:00,DRY,3.90,6.20,22.5,775.00,590.0
2019-01-07,13:20:00,DRY,1.53,5.70,27.0,775.00,330.2
2019-01-07,13:25:00,DRY,1.20,6.00,24.0,775.00,832.0
2019-01-07,13:30:00,DRY,2.00,6.60,23.0,775.00,928.8
2019-01-07,13:35:00,DRY,1.00,6.40,27.0,775.00,599.3
2019-01-07,13:40:00,DRY,1.27,6.63,26.7,775.00,566.1
2019-01-07,13:45:00,DRY,1.90,6.40,23.5,775.00,483.9
2019-01-07,13:50:00,DRY,0.97,6.53,24.7,775.00,549.1
2019-01-07,13:55:00,DRY,0.95,6.60,27.0,775.00,535.0
2019-01-07,14:00:00,DRY,1.40,6.77,26.0,775.00,733.2
2019-01-07,14:05:00,DRY,1.70,6.70,25.5,775.00,599.6
2019-01-07,14:10:00,DRY,1.90,6.63,28.3,775.00,324.3
2019-01-07,14:15:00,DRY,2.15,6.20,28.0,775.00,286.1
2019-01-07,14:20:00,DRY,1.80,6.07,30.0,775.00,394.8
2019-01-07,14:25:00,DRY,2.65,6.60,20.0,775.00,518.0
2019-01-07,14:30:00,DRY,1.93,7.07,17.7,775.00,864.7
2019-01-07,14:35:00,DRY,1.30,6.95,21.5,775.00,642.3
2019-01-07,14:40:00,DRY,1.37,7.33,28.0,775.00,723.5
2019-01-07,14:45:00,DRY,0.75,7.15,30.5,775.00,602.9
2019-01-07,14:50:00,DRY,2.07,6.83,29.3,775.00,594.8
2019-01-07,14:55:00,DRY,1.90,6.65,31.5,775.00,535.4
2019-01-07,15:00:00,DRY,1.40,6.37,32.7,775.00,376.0
2019-01-07,15:05:00,DRY,1.20,6.15,38.5,775.00,561.2